カタログに戻る

STARLINK-11636

運用中通信VLEO
NORAD 63194·PAYLOAD·🇺🇸 United States

打ち上げ Mar 13, 2025 から Cape Canaveral Space Force Station

Loading…

次のパス (今後24時間)

TLE

最新Source: CelesTrak SupGP

元期: Sep 14, 2026, 21:09 UTC

1 63194C 25048M   26257.88173611  .00016804  00000+0  13056-3 0  2572
2 63194  43.0007 259.6651 0001560 257.6341 129.3974 15.70821903    15

AllMySatでSTARLINK-11636をリアルタイム追跡

Download on the App Store